This demonstration page uses our WeatherBlox Daily Observations layout. Learn more.

Left ArrowRight Arrow

30.21309, -93.2044

Hourly Observations for February 11, 2022

Temp ( °F °C ) Dew Point ( °F °C ) Humidity (%) Winds ( mph kmh ) Pressure ( in mb ) Visibility ( mi km ) Precip ( " mm )
12:15 am 00:15 Mostly Cloudy with Mist and Fog 44 6.4 42 5.8 96 96 Calm 30.07 1018 1 1 0.00 0.00
12:35 am 00:35 Mostly Cloudy with Fog 42 5.3 40 4.7 96 96 Calm 30.06 1018 0 0 0.00 0.00
12:55 am 00:55 Mostly Cloudy with Fog 43 6 42 5.4 96 96 SSE 3 6 30.06 1018 0 0 0.00 0.00
1:15 am 01:15 Mostly Cloudy with Fog 42 5.6 41 5 96 96 SE 3 6 30.06 1018 0 0 0.00 0.00
1:35 am 01:35 Cloudy with Fog 43 6.1 42 5.5 96 96 Calm 30.06 1018 N/A 0.00 0.00
1:55 am 01:55 Mostly Cloudy with Fog 43 6.1 42 5.6 97 97 Calm 30.05 1018 0 0 0.00 0.00
2:15 am 02:15 Mostly Cloudy with Fog 42 5.8 41 5.2 96 96 Calm 30.05 1018 1 1 0.00 0.00
2:35 am 02:35 Mostly Cloudy with Fog 42 5.8 41 5.2 96 96 Calm 30.05 1018 0 0 0.00 0.00
2:55 am 02:55 Mostly Cloudy with Fog 39 3.8 38 3.2 96 96 Calm 30.04 1017 1 1 0.00 0.00
3:15 am 03:15 Cloudy with Fog 38 3.1 37 2.6 97 97 Calm 30.04 1017 N/A 0.00 0.00
3:35 am 03:35 Cloudy with Fog 39 4 38 3.4 96 96 Calm 30.03 1017 N/A 0.00 0.00
3:55 am 03:55 Cloudy with Fog 40 4.5 39 3.9 96 96 Calm 30.03 1017 N/A 0.00 0.00
4:15 am 04:15 Cloudy with Fog 40 4.4 39 3.9 97 97 Calm 30.03 1017 N/A 0.00 0.00
4:35 am 04:35 Cloudy with Fog 38 3.5 37 3 97 97 Calm 30.02 1017 N/A 0.00 0.00
4:55 am 04:55 Cloudy with Fog 39 4 37 3 93 93 Calm 30.02 1017 N/A 0.00 0.00
5:15 am 05:15 Cloudy with Fog 39 3.7 38 3.2 97 97 Calm 30.03 1017 N/A 0.00 0.00
5:35 am 05:35 Cloudy with Fog 37 2.9 36 2.3 96 96 Calm 30.03 1017 N/A 0.00 0.00
6:00 am 06:00 Partly Cloudy 37 3 36 2 93 93 Calm 30.03 1017 7 11 0.00 0.00
6:53 am 06:53 Partly Cloudy with Mist and Fog 37 3 36 2 93 93 Calm 30.03 1017 6 10 0.00 0.00
7:53 am 07:53 Mostly Cloudy with Fog 41 5 39 4 93 93 Calm 30.07 1018 1 1 0.00 0.00
8:55 am 08:55 Mostly Sunny 52 11 52 11 100 100 Calm 30.08 1019 10 16 0.00 0.00
9:55 am 09:55 Mostly Sunny 61 16 54 12 77 77 SSW 8 13 30.09 1019 10 16 0.00 0.00
10:47 am 10:47 Mostly Sunny 66 19 46 8 49 49 SSW 8 13 30.08 1019 10 16 0.00 0.00
11:47 am 11:47 Mostly Sunny 68 20 37 3 33 33 SW 12 19 30.06 1018 10 16 0.00 0.00
12:48 pm 12:48 Mostly Sunny 70 21 34 1 27 27 SW 10 17 30.02 1017 10 16 0.00 0.00
1:45 pm 13:45 Mostly Sunny 72 22 30 -1 22 22 SW 10 17 29.99 1016 10 16 0.00 0.00
2:45 pm 14:45 Mostly Sunny 70 21 34 1 27 27 S 13 20 29.97 1015 10 16 0.00 0.00
3:55 pm 15:55 Mostly Sunny 72 22 37 3 29 29 SSW 12 19 29.96 1015 10 16 0.00 0.00
4:50 pm 16:50 Mostly Sunny 68 20 46 8 46 46 S 10 17 29.97 1015 10 16 0.00 0.00
5:45 pm 17:45 Mostly Sunny 64 18 48 9 56 56 SSW 13 20 29.97 1015 10 16 0.00 0.00
6:50 pm 18:50 Mostly Clear 57 14 48 9 72 72 SSW 8 13 30.00 1016 10 16 0.00 0.00
7:50 pm 19:50 Mostly Clear 48 9 45 7 87 87 Calm 30.02 1017 10 16 0.00 0.00
8:45 pm 20:45 Mostly Clear 48 9 46 8 94 94 Calm 30.03 1017 10 16 0.00 0.00
9:45 pm 21:45 Mostly Clear 48 9 48 9 100 100 Calm 30.03 1017 10 16 0.00 0.00
10:15 pm 22:15 Mostly Cloudy with Mist and Fog 47 8.5 46 7.8 95 95 S 6 9 30.03 1017 2 2 0.00 0.00
10:35 pm 22:35 Mostly Cloudy with Fog 46 7.6 44 6.9 95 95 SSE 5 7 30.03 1017 0 0 0.00 0.00
10:55 pm 22:55 Mostly Cloudy with Fog 49 9.4 48 8.8 96 96 S 6 9 30.04 1017 1 1 0.00 0.00
11:15 pm 23:15 Mostly Cloudy with Fog 49 9.3 48 8.7 96 96 S 5 7 30.04 1017 1 1 0.00 0.00
11:35 pm 23:35 Mostly Cloudy with Fog 50 9.9 49 9.3 96 96 SSE 3 6 30.04 1017 1 1 0.00 0.00
11:55 pm 23:55 Mostly Cloudy with Fog 50 10.1 49 9.5 96 96 Calm 30.04 1017 0 0 0.00 0.00

Powered by AerisWeather